Location: Aciu?a
(46.2833°N, 22.4500°E)
Time: 04:19:49
(UTC+00:00)

USA 267 - Pass Details

Date: 25 October 2021
Orbit: 1101 x 1107 km, 123.0° (Epoch: 27 November)

Event Time Altitude Azimuth Distance (km) Brightness Sun altitude
Exits shadow 17:10:06 - 148° (SSE) 3,460 5.6 -18.5°
Reaches altitude 10° 17:11:29 10° 151° (SSE) 2,950 5.2 -18.7°
Maximum altitude 17:17:47 50° 226° (SW) 1,372 4.0 -19.8°
Drops below altitude 10° 17:24:06 10° 301° (WNW) 2,963 6.4 -20.9°
Sets 17:26:42 0° 307° (NW) 3,923 7.1 -21.4°
